カタログに戻る

FLOCK 4G 21

運用中科学SSO
NORAD 62651·PAYLOAD·🇺🇸 United States

打ち上げ Jan 14, 2025 から Vandenberg Space Force Base

Loading…

次のパス (今後24時間)

TLE

最新Source: Space-Track

元期: Sep 14, 2026, 15:41 UTC

1 62651U 25009AU  26257.65409937  .00035788  00000-0  98881-3 0  9999
2 62651  97.3934 340.2821 0001509  32.4186 327.7151 15.36962797 92671

AllMySatでFLOCK 4G 21をリアルタイム追跡

Download on the App Store